{"data":{"norad_id":62404,"epoch":"2026-09-22T16:59:21.187104Z","epoch_age_seconds":121473,"freshness":"FRESH","line1":"1 62404U 24247AD  26265.70788411  .00053824  00000+0  62707-3 0  9998","line2":"2 62404  44.9913  54.9141 0008005 262.3598  97.6389 15.60900764 98658","mean_motion":15.60900764,"eccentricity":0.0008005,"inclination_deg":44.9913,"raan_deg":54.9141,"arg_perigee_deg":262.3598,"mean_anomaly_deg":97.6389,"bstar":0.00062707,"rev_number":9865,"period_min":92.25442342086,"perigee_km":379.63996150892,"apogee_km":390.46783013313,"semimajor_km":6763.190895821,"source":"CELESTRAK","updated_at":"2026-09-23T09:00:21.397418Z"}}